Weather History for KLAM - October, 2012

Change the Weather History Date:

Friday, October 5, 2012

  Actual Average Record
Temperature  
Mean Temperature 64 °F -  
Max Temperature 71 °F 66 °F 78 °F (1980)
Min Temperature 57 °F 41 °F 29 °F (1976)
Degree Days  
Heating Degree Days 1    
Growing Degree Days 14 (Base 50)    
Moisture  
Dew Point 21 °F    
Average Humidity 20    
Maximum Humidity 31    
Minimum Humidity 11    
Precipitation  
Precipitation 0.00 in - - ()
Sea Level Pressure  
Sea Level Pressure 30.20 in    
Wind  
Wind Speed 10 mph (SW)    
Max Wind Speed 20 mph    
Max Gust Speed 29 mph    
Visibility 10 miles    
Events      
Averages and records for this station are not official NWS values.
T = Trace of Precipitation, MM = Missing Value Source: NWS Daily Summary

Daily Weather History Graph

Daily Weather History Graph

Search for Another Location

Airport or City:

Trip Planner

Search our weather history database for the weather conditions in past years. The results will help you decide how hot, cold, wet, or windy it might be!

Date:

Astronomy

Oct. 05, 2012 Rise Set
Actual Time 7:03 AM MDT 6:42 PM MDT
Civil Twilight 6:38 AM MDT 7:07 PM MDT
Nautical Twilight 6:08 AM MDT 7:37 PM MDT
Astronomical Twilight 5:38 AM MDT 8:07 PM MDT
Moon 10:17 PM MDT (10/5) 12:04 PM MDT (10/5)
Length of Visible Light 12h 29m
Length of Day
11h 38m
Waning Gibbous, 73% of the Moon is Illuminated
Oct 5
Waning Gibbous
Oct 8
Last Quarter
Oct 15
New
Oct 21
First Quarter
Oct 29
Full

Hourly Weather History & Observations

Time (MDT) Temp. Dew Point Humidity Pressure Visibility Wind Dir Wind Speed Gust Speed Precip Events Conditions
12:15 AM 66.7 °F 20.3 °F 17% 30.23 in 10.0 mi SSW 15.0 mph 24.2 mph N/A   Clear
12:35 AM 66.4 °F 20.8 °F 18% 30.23 in 10.0 mi SSW 8.1 mph 17.3 mph N/A   Clear
12:55 AM 65.7 °F 21.4 °F 18% 30.23 in 10.0 mi SSE 5.8 mph - N/A   Clear
1:15 AM 59.7 °F 25.9 °F 27% 30.23 in 10.0 mi ESE 8.1 mph - N/A   Clear
1:35 AM 57.7 °F 27.5 °F 31% 30.23 in 10.0 mi SE 8.1 mph - N/A   Clear
1:55 AM 59.4 °F 26.2 °F 28% 30.24 in 10.0 mi SSE 8.1 mph 17.3 mph N/A   Clear
2:15 AM 62.6 °F 23.4 °F 22% 30.24 in 10.0 mi SSW 9.2 mph 19.6 mph N/A   Clear
2:35 AM 62.6 °F 23.4 °F 22% 30.23 in 10.0 mi South 9.2 mph 16.1 mph N/A   Clear
2:55 AM 61.7 °F 23.9 °F 24% 30.23 in 10.0 mi South 6.9 mph - N/A   Clear
3:15 AM 61.2 °F 24.3 °F 24% 30.23 in 10.0 mi South 8.1 mph - N/A   Clear
3:35 AM 60.8 °F 24.6 °F 25% 30.23 in 10.0 mi SSW 9.2 mph - N/A   Clear
3:55 AM 59.5 °F 25.3 °F 27% 30.23 in 10.0 mi SSE 6.9 mph - N/A   Clear
4:15 AM 58.8 °F 25.3 °F 28% 30.23 in 10.0 mi South 9.2 mph - N/A   Clear
4:35 AM 59.2 °F 25.2 °F 27% 30.24 in 10.0 mi South 9.2 mph - N/A   Clear
4:55 AM 59.0 °F 25.7 °F 28% 30.24 in 10.0 mi South 5.8 mph - N/A   Clear
5:15 AM 58.3 °F 25.7 °F 29% 30.24 in 10.0 mi South 5.8 mph - N/A   Clear
5:35 AM 57.7 °F 26.1 °F 30% 30.24 in 10.0 mi South 6.9 mph - N/A   Clear
5:55 AM 58.1 °F 25.5 °F 29% 30.24 in 10.0 mi SSW 10.4 mph 16.1 mph N/A   Clear
6:15 AM 58.3 °F 25.3 °F 28% 30.24 in 10.0 mi SSW 5.8 mph - N/A   Clear
6:35 AM 57.4 °F 25.2 °F 29% 30.24 in 10.0 mi South 10.4 mph - N/A   Clear
6:55 AM 57.4 °F 25.0 °F 29% 30.25 in 10.0 mi South 11.5 mph - N/A   Clear
7:15 AM 57.2 °F 25.0 °F 29% 30.25 in 10.0 mi SSW 10.4 mph - N/A   Clear
7:35 AM 57.2 °F 25.2 °F 29% 30.25 in 10.0 mi SSW 8.1 mph - N/A   Clear
7:55 AM 57.6 °F 25.3 °F 29% 30.25 in 10.0 mi SSW 9.2 mph - N/A   Clear
8:15 AM 58.1 °F 25.7 °F 29% 30.25 in 10.0 mi South 10.4 mph - N/A   Clear
8:35 AM 59.0 °F 25.7 °F 28% 30.25 in 10.0 mi SSW 11.5 mph 16.1 mph N/A   Clear
8:55 AM 59.9 °F 25.3 °F 27% 30.26 in 10.0 mi South 9.2 mph - N/A   Clear
9:15 AM 60.8 °F 25.3 °F 26% 30.26 in 10.0 mi South 9.2 mph - N/A   Clear
9:35 AM 61.7 °F 25.5 °F 25% 30.26 in 10.0 mi South 5.8 mph - N/A   Clear
9:55 AM 62.4 °F 25.5 °F 25% 30.25 in 10.0 mi South 4.6 mph - N/A   Clear
10:35 AM 64.2 °F 25.9 °F 23% 30.24 in 10.0 mi South 9.2 mph - N/A   Clear
10:55 AM 64.2 °F 26.6 °F 24% 30.23 in 10.0 mi SSE 8.1 mph 16.1 mph N/A   Clear
11:15 AM 67.1 °F 25.0 °F 20% 30.23 in 10.0 mi SSE 8.1 mph - N/A   Clear
11:35 AM 67.8 °F 24.4 °F 19% 30.22 in 10.0 mi WSW 9.2 mph 17.3 mph N/A   Clear
11:55 AM 69.3 °F 23.2 °F 18% 30.21 in 10.0 mi WNW 6.9 mph - N/A   Clear
12:35 PM 69.3 °F 19.9 °F 15% 30.21 in 10.0 mi WNW 16.1 mph 26.5 mph N/A   Clear
12:55 PM 70.9 °F 19.4 °F 14% 30.21 in 10.0 mi West 19.6 mph 27.6 mph N/A   Scattered Clouds
1:15 PM 70.9 °F 18.9 °F 14% 30.19 in 10.0 mi West 13.8 mph 23.0 mph N/A   Scattered Clouds
1:35 PM 71.4 °F 17.2 °F 13% 30.18 in 10.0 mi West 9.2 mph 24.2 mph N/A   Clear
1:55 PM 71.1 °F 15.8 °F 12% 30.17 in 10.0 mi WNW 11.5 mph 23.0 mph N/A   Clear
2:15 PM 70.3 °F 15.3 °F 12% 30.16 in 10.0 mi WNW 13.8 mph 24.2 mph N/A   Clear
2:35 PM 70.3 °F 15.6 °F 12% 30.16 in 10.0 mi WSW 17.3 mph 24.2 mph N/A   Clear
2:55 PM 70.2 °F 16.5 °F 13% 30.15 in 10.0 mi WSW 12.7 mph 17.3 mph N/A   Clear
3:15 PM 71.4 °F 16.9 °F 13% 30.15 in 10.0 mi SW 16.1 mph 21.9 mph N/A   Clear
3:35 PM 71.4 °F 15.6 °F 12% 30.15 in 10.0 mi West 8.1 mph 27.6 mph N/A   Clear
3:55 PM 71.1 °F 15.3 °F 12% 30.15 in 10.0 mi West 10.4 mph 18.4 mph N/A   Clear
4:15 PM 71.2 °F 12.9 °F 11% 30.14 in 10.0 mi West 17.3 mph 27.6 mph N/A   Clear
4:35 PM 71.6 °F 14.5 °F 11% 30.14 in 10.0 mi WSW 12.7 mph 28.8 mph N/A   Clear
4:55 PM 71.6 °F 15.4 °F 12% 30.14 in 10.0 mi WSW 9.2 mph 20.7 mph N/A   Clear
5:15 PM 71.4 °F 16.7 °F 12% 30.15 in 10.0 mi WSW 16.1 mph 23.0 mph N/A   Clear
5:35 PM 70.9 °F 15.8 °F 12% 30.15 in 10.0 mi WSW 12.7 mph 21.9 mph N/A   Clear
5:55 PM 70.2 °F 16.0 °F 13% 30.15 in 10.0 mi WSW 13.8 mph 25.3 mph N/A   Clear
6:15 PM 69.8 °F 15.8 °F 13% 30.15 in 10.0 mi West 9.2 mph 18.4 mph N/A   Clear
6:35 PM 68.9 °F 16.2 °F 13% 30.15 in 10.0 mi WSW 8.1 mph - N/A   Clear
6:55 PM 68.4 °F 13.8 °F 12% 30.15 in 10.0 mi WSW 8.1 mph 23.0 mph N/A   Clear
7:15 PM 67.6 °F 13.6 °F 12% 30.16 in 10.0 mi SSW 6.9 mph - N/A   Clear
7:35 PM 66.4 °F 13.5 °F 13% 30.16 in 10.0 mi SW 4.6 mph - N/A   Clear
7:55 PM 65.7 °F 14.5 °F 14% 30.16 in 10.0 mi SSW 6.9 mph - N/A   Clear
8:15 PM 64.8 °F 15.3 °F 15% 30.17 in 10.0 mi SSW 6.9 mph - N/A   Clear
8:35 PM 64.6 °F 15.4 °F 15% 30.17 in 10.0 mi SW 6.9 mph - N/A   Clear
8:55 PM 63.7 °F 15.8 °F 16% 30.17 in 10.0 mi SW 6.9 mph - N/A   Clear
9:35 PM 63.3 °F 16.3 °F 16% 30.17 in 10.0 mi WSW 6.9 mph - N/A   Clear
9:55 PM 63.3 °F 17.2 °F 17% 30.17 in 10.0 mi WSW 6.9 mph - N/A   Clear
10:15 PM 63.7 °F 17.2 °F 17% 30.17 in 10.0 mi WSW 3.5 mph - N/A   Clear
10:35 PM 62.4 °F 18.0 °F 18% 30.17 in 10.0 mi WSW 8.1 mph - N/A   Clear
10:55 PM 61.7 °F 18.3 °F 19% 30.17 in 10.0 mi WSW 5.8 mph - N/A   Clear
11:15 PM 61.0 °F 17.8 °F 19% 30.17 in 10.0 mi WSW 4.6 mph - N/A   Clear
11:35 PM 60.1 °F 17.6 °F 19% 30.16 in 10.0 mi WSW 5.8 mph - N/A   Clear
11:55 PM 60.3 °F 17.6 °F 19% 30.16 in 10.0 mi WSW 8.1 mph - N/A   Clear